This is the latest recevied weather packets stored in our database for station/object K7ZQU-7. If no packets are shown the sender has not sent any weather packets the latest 10 day(s).
| Time | Temp. | Humidity | Pressure | Rain* | Wind** | Luminosity | Snow |
|---|---|---|---|---|---|---|---|
| 1777179101 | 0° C | 61% | 1006.6 hPa | 0 mm | 0 m/s | - | - |
| 1777178802 | 0° C | 61% | 1006.7 hPa | 0 mm | 0 m/s | - | - |
| 1777178503 | 0° C | 61% | 1006.6 hPa | 0 mm | 0 m/s | - | - |
| 1777178201 | 0° C | 61% | 1006.6 hPa | 0 mm | 0 m/s | - | - |
| 1777177903 | 0° C | 61% | 1006.6 hPa | 0 mm | 0 m/s | - | - |
| 1777177604 | 0° C | 60% | 1006.6 hPa | 0 mm | 0 m/s | - | - |
| 1777177305 | 0.56° C | 60% | 1006.6 hPa | 0 mm | 0 m/s | - | - |
| 1777177007 | 0.56° C | 60% | 1006.4 hPa | 0 mm | 0 m/s | - | - |
| 1777176704 | 0.56° C | 60% | 1006.6 hPa | 0 mm | 0 m/s | - | - |
| 1777176406 | 1.11° C | 59% | 1006.4 hPa | 0 mm | 0 m/s | - | - |
| 1777176107 | 1.11° C | 59% | 1006.4 hPa | 0 mm | 0 m/s | - | - |
| 1777175808 | 1.11° C | 59% | 1006.4 hPa | 0 mm | 0 m/s | - | - |
| 1777175509 | 1.67° C | 58% | 1006.4 hPa | 0 mm | 0 m/s | - | - |
| 1777175208 | 1.67° C | 57% | 1006.3 hPa | 0 mm | 0 m/s | - | - |
| 1777174909 | 2.22° C | 56% | 1006.3 hPa | 0 mm | 0 m/s | - | - |
| 1777174610 | 2.22° C | 56% | 1006.3 hPa | 0 mm | 0 m/s | - | - |
| 1777174311 | 2.78° C | 55% | 1006.3 hPa | 0 mm | 0 m/s | - | - |
| 1777174013 | 2.78° C | 54% | 1006.3 hPa | 0 mm | 0 m/s | - | - |
| 1777173711 | 3.33° C | 53% | 1006.3 hPa | 0 mm | 0 m/s | - | - |
| 1777173412 | 3.89° C | 51% | 1006.3 hPa | 0 mm | 0 m/s | - | - |
| 1777173113 | 3.89° C | 50% | 1006.3 hPa | 0 mm | 0 m/s | - | - |
| 1777172815 | 4.44° C | 49% | 1006.2 hPa | 0 mm | 0 m/s | - | - |
| 1777172516 | 4.44° C | 48% | 1006.2 hPa | 0 mm | 0 m/s | - | - |
| 1777172214 | 5° C | 47% | 1006.2 hPa | 0 mm | 0 m/s | - | - |
| 1777171915 | 5° C | 45% | 1006.3 hPa | 0 mm | 0 m/s | - | - |
* Rain latest hour (hover to see other rain measurements)
** Current wind speed in m/s (hover to see current wind gust speed)